This demonstration page uses our WeatherBlox Daily Observations layout. Learn more.

Hourly Observations for June 27, 2017

Temp ( °F °C ) Dew Point ( °F °C ) Humidity (%) Winds ( mph kmh ) Pressure ( in mb ) Visibility ( mi km ) Precip ( " mm )
12:15 am 00:15 Mostly Cloudy 70 21 52 11 53 53 NW 5 7 30.03 1017 10 16.09344 0 0
12:35 am 00:35 Clear 70 21 52 11 53 53 Calm 30.03 1017 10 16.09344 0 0
12:55 am 00:55 Clear 70 21 54 12 57 57 Calm 30.03 1017 10 16.09344 0 0
1:15 am 01:15 Clear 70 21 52 11 53 53 Calm 30.03 1017 10 16.09344 0 0
1:35 am 01:35 Clear 68 20 52 11 56 56 Calm 30.03 1017 10 16.09344 0 0
1:55 am 01:55 Clear 68 20 52 11 56 56 Calm 30 1016 10 16.09344 0 0
2:15 am 02:15 Partly Cloudy 68 20 52 11 56 56 Calm 30 1016 10 16.09344 0 0
2:35 am 02:35 Partly Cloudy 66 19 54 12 64 64 Calm 30 1016 10 16.09344 0 0
2:55 am 02:55 Partly Cloudy 64 18 54 12 68 68 Calm 30 1016 10 16.09344 0 0
3:15 am 03:15 Partly Cloudy 63 17 54 12 73 73 Calm 30.03 1017 10 16.09344 0 0
3:35 am 03:35 Clear 63 17 54 12 73 73 NW 3 6 30.03 1017 10 16.09344 0 0
3:55 am 03:55 Clear 61 16 55 13 83 83 NW 6 9 30.03 1017 10 16.09344 0 0
4:15 am 04:15 Clear 61 16 55 13 83 83 NW 3 6 30.03 1017 10 16.09344 0 0
4:35 am 04:35 Partly Cloudy 63 17 54 12 73 73 Calm 30.03 1017 10 16.09344 0 0
4:55 am 04:55 Partly Cloudy 59 15 54 12 82 82 Calm 30.03 1017 10 16.09344 0 0
5:15 am 05:15 Mostly Cloudy 59 15 54 12 82 82 Calm 30.03 1017 10 16.09344 0 0
5:35 am 05:35 Partly Cloudy 61 16 55 13 83 83 Calm 30.03 1017 10 16.09344 0 0
5:55 am 05:55 Partly Cloudy 63 17 54 12 73 73 Calm 30.03 1017 10 16.09344 0 0
6:15 am 06:15 Sunny 63 17 55 13 77 77 Calm 30.03 1017 10 16.09344 0 0
6:35 am 06:35 Sunny 61 16 55 13 83 83 Calm 30.06 1018 10 16.09344 0 0
6:55 am 06:55 Sunny 63 17 55 13 77 77 NW 3 6 30.06 1018 10 16.09344 0 0
7:15 am 07:15 Sunny 63 17 57 14 83 83 Calm 30.06 1018 10 16.09344 0 0
7:35 am 07:35 Sunny 66 19 55 13 68 68 Calm 30.06 1018 10 16.09344 0 0
7:55 am 07:55 Sunny 68 20 55 13 64 64 Calm 30.06 1018 10 16.09344 0 0
8:15 am 08:15 Partly Cloudy 68 20 55 13 64 64 Calm 30.06 1018 10 16.09344 0 0
8:35 am 08:35 Mostly Cloudy 70 21 55 13 60 60 Calm 30.06 1018 10 16.09344 0 0
8:55 am 08:55 Partly Cloudy 70 21 55 13 60 60 NNW 3 6 30.06 1018 7 11.265408 0 0
9:15 am 09:15 Partly Cloudy 70 21 55 13 60 60 Calm 30.06 1018 10 16.09344 0 0
9:35 am 09:35 Mostly Cloudy 72 22 54 12 53 53 NNW 6 9 30.06 1018 10 16.09344 0 0
9:55 am 09:55 Partly Cloudy 73 23 55 13 53 53 NNW 6 9 30.06 1018 10 16.09344 0 0
10:15 am 10:15 Sunny 73 23 55 13 53 53 Calm 30.06 1018 10 16.09344 0 0
10:35 am 10:35 Sunny 75 24 55 13 50 50 W 9 15 30.06 1018 10 16.09344 0 0
10:55 am 10:55 Sunny 77 25 55 13 47 47 WNW 8 13 30.06 1018 10 16.09344 0 0
11:15 am 11:15 Partly Cloudy 77 25 55 13 47 47 WNW 13 20 30.06 1018 10 16.09344 0 0
11:35 am 11:35 Partly Cloudy 77 25 55 13 47 47 WNW 16 26 30.06 1018 10 16.09344 0 0
11:55 am 11:55 Partly Cloudy 77 25 55 13 47 47 NNW 6 9 30.03 1017 10 16.09344 0 0
12:15 pm 12:15 Mostly Cloudy 79 26 55 13 45 45 WNW 9 15 30.03 1017 10 16.09344 0 0
12:35 pm 12:35 Mostly Cloudy 77 25 54 12 44 44 WSW 6 9 30.03 1017 10 16.09344 0 0
12:55 pm 12:55 Partly Cloudy 79 26 55 13 45 45 Calm 30.03 1017 10 16.09344 0 0
1:15 pm 13:15 Partly Cloudy 79 26 55 13 45 45 N 9 15 30.03 1017 10 16.09344 0 0
1:35 pm 13:35 Partly Cloudy 81 27 54 12 39 39 W 7 11 30.03 1017 10 16.09344 0 0
1:55 pm 13:55 Partly Cloudy 79 26 52 11 39 39 WNW 13 20 30.03 1017 10 16.09344 0 0
2:15 pm 14:15 Partly Cloudy 81 27 54 12 39 39 NW 10 17 30.03 1017 10 16.09344 0 0
2:35 pm 14:35 Partly Cloudy 81 27 52 11 37 37 WNW 8 13 30.03 1017 10 16.09344 0 0
2:55 pm 14:55 Partly Cloudy 81 27 52 11 37 37 NW 15 24 30 1016 10 16.09344 0 0
3:15 pm 15:15 Sunny 82 28 50 10 32 32 W 15 24 30 1016 10 16.09344 0 0
3:35 pm 15:35 Partly Cloudy 82 28 50 10 32 32 WNW 13 20 30 1016 10 16.09344 0 0
3:55 pm 15:55 Partly Cloudy 81 27 52 11 37 37 NW 12 19 30 1016 10 16.09344 0 0
4:15 pm 16:15 Sunny 81 27 50 10 34 34 WNW 13 20 30 1016 10 16.09344 0 0
4:35 pm 16:35 Partly Cloudy 79 26 52 11 39 39 WNW 12 19 30 1016 10 16.09344 0 0
4:55 pm 16:55 Sunny 81 27 52 11 37 37 NW 13 20 30 1016 10 16.09344 0 0
5:15 pm 17:15 Sunny 81 27 52 11 37 37 W 12 19 30 1016 10 16.09344 0 0
5:35 pm 17:35 Partly Cloudy 81 27 50 10 34 34 WNW 12 19 30 1016 10 16.09344 0 0
5:55 pm 17:55 Sunny 81 27 50 10 34 34 NW 12 19 30 1016 10 16.09344 0 0
6:15 pm 18:15 Partly Cloudy 79 26 50 10 37 37 NW 9 15 30 1016 10 16.09344 0 0
6:35 pm 18:35 Partly Cloudy 79 26 50 10 37 37 N 10 17 30 1016 10 16.09344 0 0
6:55 pm 18:55 Mostly Cloudy 79 26 50 10 37 37 NNW 18 30 30 1016 10 16.09344 0 0
7:15 pm 19:15 Partly Cloudy 77 25 48 9 36 36 NNW 16 26 30.03 1017 10 16.09344 0 0
7:35 pm 19:35 Sunny 75 24 48 9 39 39 NNW 14 22 30.03 1017 10 16.09344 0 0
7:55 pm 19:55 Sunny 73 23 50 10 44 44 NNW 12 19 30.03 1017 10 16.09344 0 0
8:35 pm 20:35 Sunny 72 22 50 10 47 47 NNW 10 17 30.03 1017 10 16.09344 0 0
8:55 pm 20:55 Clear 70 21 50 10 50 50 NNW 9 15 30.06 1018 10 16.09344 0 0
9:15 pm 21:15 Clear 70 21 50 10 50 50 N 5 7 30.06 1018 10 16.09344 0 0
9:55 pm 21:55 Clear 66 19 50 10 56 56 NNW 7 11 30.06 1018 10 16.09344 0 0
10:15 pm 22:15 Clear 66 19 50 10 56 56 Calm 30.09 1019 10 16.09344 0 0
10:35 pm 22:35 Clear 66 19 50 10 56 56 Calm 30.09 1019 10 16.09344 0 0
10:55 pm 22:55 Clear 63 17 52 11 68 68 NNW 5 7 30.09 1019 10 16.09344 0 0
11:15 pm 23:15 Clear 61 16 52 11 72 72 NW 6 9 30.09 1019 10 16.09344 0 0
11:35 pm 23:35 Clear 63 17 52 11 68 68 NW 5 7 30.12 1020 10 16.09344 0 0
11:55 pm 23:55 Clear 63 17 52 11 68 68 NNW 9 15 30.12 1020 10 16.09344 0 0

Powered by AerisWeather